| time (UTC) | temp C | wind direction | speed KPH | gust KPH | rain 1hr cm | rain 24hr cm | rain mn cm | humidity % | barometer mb |
| 20260504044321 | 3 | 272 | 0.0 | 0.0 | 0.00 | 0.00 | 0.00 | 80 | 1012.4 |
| 20260504042313 | 3 | 272 | 0.0 | 0.0 | 0.00 | 0.00 | 0.00 | 78 | 1012.3 |
| 20260504041326 | 3 | 272 | 0.0 | 0.0 | 0.00 | 0.00 | 0.00 | 77 | 1012.3 |
| 20260504040318 | 3 | 272 | 0.0 | 0.0 | 0.00 | 0.00 | 0.00 | 75 | 1012.3 |
| 20260504035326 | 3 | 272 | 0.0 | 0.0 | 0.00 | 0.00 | 0.00 | 74 | 1012.2 |
| 20260504034324 | 4 | 272 | 0.0 | 1.6 | 0.00 | 0.00 | 0.00 | 73 | 1012.1 |
| 20260504033318 | 4 | 272 | 0.0 | 0.0 | 0.00 | 0.00 | 0.00 | 72 | 1012.1 |
| 20260504032338 | 4 | 272 | 0.0 | 0.0 | 0.00 | 0.00 | 0.00 | 69 | 1012.1 |
| 20260504031335 | 5 | 272 | 0.0 | 0.0 | 0.00 | 0.00 | 0.00 | 71 | 1012.0 |
| 20260504030331 | 5 | 272 | 0.0 | 0.0 | 0.00 | 0.00 | 0.00 | 67 | 1012.1 |
| 20260504025325 | 5 | 272 | 0.0 | 0.0 | 0.00 | 0.00 | 0.00 | 69 | 1011.9 |
| 20260504024346 | 5 | 272 | 0.0 | 0.0 | 0.00 | 0.00 | 0.00 | 67 | 1012.0 |
| 20260504023317 | 5 | 272 | 0.0 | 0.0 | 0.00 | 0.00 | 0.00 | 65 | 1011.9 |
| 20260504022337 | 5 | 272 | 0.0 | 0.0 | 0.00 | 0.00 | 0.00 | 65 | 1012.0 |
| 20260504021331 | 6 | 272 | 0.0 | 0.0 | 0.00 | 0.00 | 0.00 | 64 | 1012.0 |
| 20260504020326 | 6 | 272 | 0.0 | 0.0 | 0.00 | 0.00 | 0.00 | 62 | 1011.9 |
| 20260504015318 | 6 | 272 | 0.0 | 0.0 | 0.00 | 0.00 | 0.00 | 62 | 1011.9 |
| 20260504014314 | 6 | 272 | 0.0 | 0.0 | 0.00 | 0.00 | 0.00 | 61 | 1011.9 |
| 20260504013334 | 7 | 272 | 0.0 | 0.0 | 0.00 | 0.00 | 0.00 | 55 | 1011.8 |
| 20260504012326 | 7 | 272 | 0.0 | 0.0 | 0.00 | 0.00 | 0.00 | 58 | 1011.6 |
| 20260504011323 | 7 | 272 | 0.0 | 0.0 | 0.00 | 0.00 | 0.00 | 54 | 1011.5 |
| 20260504010314 | 8 | 272 | 0.0 | 0.0 | 0.00 | 0.00 | 0.00 | 53 | 1011.3 |
| 20260504005335 | 8 | 272 | 0.0 | 0.0 | 0.00 | 0.00 | 0.00 | 55 | 1011.1 |
| 20260504004329 | 8 | 272 | 0.0 | 0.0 | 0.00 | 0.00 | 0.00 | 55 | 1011.0 |
| 20260504003321 | 9 | 272 | 0.0 | 0.0 | 0.00 | 0.00 | 0.00 | 49 | 1010.9 |
| 20260504002314 | 9 | 272 | 0.0 | 0.0 | 0.00 | 0.00 | 0.00 | 47 | 1010.8 |
| 20260504001335 | 10 | 272 | 0.0 | 0.0 | 0.00 | 0.00 | 0.00 | 47 | 1010.6 |
| 20260504000329 | 10 | 272 | 0.0 | 0.0 | 0.00 | 0.00 | 0.00 | 48 | 1010.5 |
| 20260503235350 | 10 | 272 | 0.0 | 0.0 | 0.00 | 0.00 | 0.00 | 41 | 1010.3 |
| 20260503234348 | 11 | 272 | 0.0 | 0.0 | 0.00 | 0.00 | 0.00 | 43 | 1010.1 |
| 20260503233321 | 11 | 272 | 0.0 | 0.0 | 0.00 | 0.00 | 0.00 | 43 | 1010.1 |
| 20260503232343 | 12 | 272 | 0.0 | 1.6 | 0.00 | 0.00 | 0.00 | 37 | 1010.0 |
| 20260503231315 | 12 | 20 | 0.0 | 6.4 | 0.00 | 0.00 | 0.00 | 33 | 1009.9 |
| 20260503230335 | 13 | 314 | 1.6 | 8.0 | 0.00 | 0.00 | 0.00 | 33 | 1009.9 |
| 20260503225333 | 13 | 337 | 0.0 | 3.2 | 0.00 | 0.00 | 0.00 | 32 | 1009.7 |
| 20260503224325 | 13 | 276 | 1.6 | 9.7 | 0.00 | 0.00 | 0.00 | 34 | 1009.7 |
| 20260503223321 | 13 | 254 | 3.2 | 4.8 | 0.00 | 0.00 | 0.00 | 34 | 1009.8 |
| 20260503222315 | 14 | 287 | 1.6 | 8.0 | 0.00 | 0.00 | 0.00 | 32 | 1009.7 |
| 20260503221356 | 14 | 208 | 1.6 | 9.7 | 0.00 | 0.00 | 0.00 | 32 | 1009.5 |
| 20260503220329 | 15 | 267 | 3.2 | 9.7 | 0.00 | 0.00 | 0.00 | 32 | 1009.7 |
| 20260503215320 | 14 | 313 | 1.6 | 9.7 | 0.00 | 0.00 | 0.00 | 33 | 1009.6 |
| 20260503214315 | 14 | 312 | 1.6 | 6.4 | 0.00 | 0.00 | 0.00 | 32 | 1009.6 |
| 20260503213336 | 13 | 20 | 3.2 | 9.7 | 0.00 | 0.00 | 0.00 | 35 | 1009.5 |
| 20260503212328 | 13 | 327 | 3.2 | 6.4 | 0.00 | 0.00 | 0.00 | 33 | 1009.6 |
| 20260503211320 | 13 | 293 | 1.6 | 9.7 | 0.00 | 0.00 | 0.00 | 35 | 1009.6 |
| 20260503210313 | 13 | 345 | 1.6 | 11.3 | 0.00 | 0.00 | 0.00 | 35 | 1009.6 |
| 20260503205331 | 13 | 267 | 4.8 | 9.7 | 0.00 | 0.00 | 0.00 | 35 | 1009.8 |
| 20260503204325 | 13 | 282 | 1.6 | 9.7 | 0.00 | 0.00 | 0.00 | 35 | 1009.8 |
| 20260503203320 | 12 | 338 | 4.8 | 11.3 | 0.00 | 0.00 | 0.00 | 35 | 1009.8 |
| 20260503202343 | 12 | 325 | 4.8 | 11.3 | 0.00 | 0.00 | 0.00 | 35 | 1009.8 |
| 20260503201315 | 12 | 359 | 3.2 | 12.9 | 0.00 | 0.00 | 0.00 | 39 | 1009.7 |
| 20260503200351 | 12 | 232 | 4.8 | 9.7 | 0.00 | 0.00 | 0.00 | 36 | 1009.8 |
| 20260503195320 | 13 | 10 | 1.6 | 9.7 | 0.00 | 0.00 | 0.00 | 38 | 1009.8 |
| 20260503194321 | 12 | 310 | 3.2 | 16.1 | 0.00 | 0.00 | 0.00 | 39 | 1009.8 |
| 20260503193341 | 11 | 319 | 3.2 | 12.9 | 0.00 | 0.00 | 0.00 | 37 | 1009.9 |
| 20260503192314 | 11 | 360 | 3.2 | 9.7 | 0.00 | 0.00 | 0.00 | 40 | 1010.0 |
| 20260503191333 | 11 | 339 | 3.2 | 9.7 | 0.00 | 0.00 | 0.00 | 39 | 1009.9 |
| 20260503190329 | 12 | 274 | 3.2 | 9.7 | 0.00 | 0.00 | 0.00 | 38 | 1009.8 |
| 20260503185319 | 12 | 338 | 6.4 | 12.9 | 0.00 | 0.00 | 0.00 | 37 | 1010.2 |
| 20260503184339 | 12 | 18 | 4.8 | 12.9 | 0.00 | 0.00 | 0.00 | 37 | 1010.0 |
| 20260503183327 | 12 | 189 | 4.8 | 9.7 | 0.00 | 0.00 | 0.00 | 38 | 1009.9 |
| 20260503182322 | 12 | 241 | 4.8 | 12.9 | 0.00 | 0.00 | 0.00 | 38 | 1009.9 |
| 20260503181314 | 11 | 199 | 3.2 | 22.5 | 0.00 | 0.00 | 0.00 | 37 | 1009.8 |
| 20260503180334 | 12 | 94 | 3.2 | 9.7 | 0.00 | 0.00 | 0.00 | 40 | 1009.9 |
| 20260503175326 | 11 | 360 | 3.2 | 12.9 | 0.00 | 0.00 | 0.00 | 38 | 1009.9 |
| 20260503174317 | 11 | 41 | 1.6 | 9.7 | 0.00 | 0.00 | 0.00 | 41 | 1009.9 |
| 20260503173337 | 11 | 251 | 3.2 | 9.7 | 0.00 | 0.00 | 0.00 | 38 | 1010.0 |
| 20260503172330 | 11 | 10 | 3.2 | 8.0 | 0.00 | 0.00 | 0.00 | 42 | 1010.0 |
| 20260503171346 | 10 | 274 | 3.2 | 11.3 | 0.00 | 0.00 | 0.00 | 46 | 1010.0 |
| 20260503170317 | 10 | 8 | 1.6 | 12.9 | 0.00 | 0.00 | 0.00 | 46 | 1010.0 |
| 20260503150328 | 8 | 238 | 3.2 | 19.3 | 0.00 | 0.00 | 0.00 | 55 | 1010.4 |
| 20260503131323 | 7 | 333 | 3.2 | 16.1 | 0.00 | 0.00 | 0.00 | 62 | 1010.3 |
| 20260503130346 | 6 | 293 | 4.8 | 17.7 | 0.00 | 0.00 | 0.00 | 62 | 1010.4 |
| 20260503110315 | 3 | 283 | 0.0 | 3.2 | 0.00 | 0.05 | 0.00 | 73 | 1010.1 |
| 20260503090323 | 4 | 321 | 0.0 | 9.7 | 0.00 | 0.08 | 0.00 | 68 | 1009.8 |
| 20260503081328 | 4 | 347 | 0.0 | 4.8 | 0.00 | 0.13 | 0.00 | 66 | 1010.1 |
| 20260503080339 | 5 | 335 | 0.0 | 4.8 | 0.00 | 0.13 | 0.00 | 67 | 1010.1 |
| 20260503072345 | 5 | 217 | 0.0 | 1.6 | 0.00 | 0.13 | 0.00 | 64 | 1010.3 |
| 20260503071317 | 5 | 282 | 0.0 | 3.2 | 0.00 | 0.13 | 0.00 | 64 | 1010.3 |
| 20260503070338 | 6 | 326 | 0.0 | 8.0 | 0.00 | 0.13 | 0.00 | 63 | 1010.4 |
| 20260503060329 | 6 | 285 | 0.0 | 8.0 | 0.00 | 0.13 | 0.00 | 60 | 1010.6 |
| 20260503054316 | 6 | 253 | 0.0 | 4.8 | 0.00 | 0.13 | 0.00 | 58 | 1011.0 |
| 20260503053334 | 6 | 274 | 1.6 | 8.0 | 0.00 | 0.13 | 0.00 | 59 | 1011.1 |
| 20260503052328 | 6 | 282 | 0.0 | 4.8 | 0.00 | 0.13 | 0.00 | 63 | 1011.0 |
| 20260503051322 | 6 | 249 | 0.0 | 1.6 | 0.00 | 0.13 | 0.00 | 60 | 1011.3 |
| 20260503050331 | 6 | 299 | 0.0 | 3.2 | 0.00 | 0.13 | 0.00 | 64 | 1011.3 |
| 20260503045323 | 6 | 248 | 0.0 | 1.6 | 0.00 | 0.13 | 0.00 | 63 | 1011.3 |